Список аэропортов
Фактическая погода:

26 июня, 23:30
Температура: +14°C (+13.8*)
Ветер: южный 2 м/с
Давление: *762 мм
неб. облачность
120 м
дымка
Время (МСК)Темп. СВетерВлажностьДавлениеОблачностьОсадки
21:00+18С, 2 м/с80%1016 гПаоблачнодождь
22:00+17С, 2 м/с85%1016 гПаоблачнодождь
23:00+16СВ, 1 м/с87%1016 гПаоблачнодождь
27 июня
00:00+16ЮВ, 1 м/с88%1015 гПаоблачно
01:00+16ЮВ, 1 м/с90%1014 гПаоблачносл. дождь
02:00+16Ю, 1 м/с91%1014 гПаоблачнодождь
03:00+16З, 1 м/с92%1013 гПаоблачнодождь
04:00+15СВ, 1 м/с94%1013 гПаоблачнодождь
05:00+15СВ, 1 м/с95%1012 гПаоблачно
06:00+15СВ, 2 м/с94%1011 гПаоблачно
07:00+15СВ, 3 м/с92%1010 гПаоблачно
08:00+17В, 4 м/с85%1009 гПамалооблачно
09:00+18В, 4 м/с74%1008 гПас прояснениями
10:00+19В, 5 м/с64%1007 гПаоблачно
11:00+19В, 5 м/с64%1005 гПаоблачнодождь
12:00+18В, 5 м/с76%1004 гПаоблачнодождь
13:00+18В, 5 м/с81%1003 гПаоблачно
14:00+18В, 7 м/с74%1002 гПаоблачно
15:00+18В, 6 м/с77%1000 гПаоблачносл. дождь
16:00+18В, 7 м/с84%998 гПаоблачно
17:00+18В, 7 м/с85%997 гПаоблачносл. дождь
18:00+18В, 6 м/с89%995 гПаоблачнодождь
19:00+17В, 5 м/с93%994 гПаоблачносл. дождь
20:00+17СВ, 5 м/с94%993 гПаоблачно
21:00+17СВ, 4 м/с94%991 гПаоблачно
22:00+17СВ, 3 м/с95%990 гПаоблачно
23:00+17СВ, 1 м/с96%989 гПаоблачно
28 июня
00:00+17ЮЗ, 1 м/с96%989 гПаоблачно
01:00+17ЮЗ, 4 м/с95%988 гПаоблачно
02:00+16ЮЗ, 7 м/с91%988 гПаоблачно
03:00+15ЮЗ, 6 м/с94%988 гПаоблачно
04:00+15Ю, 6 м/с95%988 гПаоблачносл. дождь
05:00+14Ю, 6 м/с96%987 гПаоблачносл. дождь
06:00+14Ю, 5 м/с96%987 гПаоблачносл. дождь
07:00+13Ю, 5 м/с97%987 гПаоблачносл. дождь
08:00+13Ю, 6 м/с94%987 гПаоблачносл. дождь
09:00+12Ю, 5 м/с94%987 гПаоблачносл. дождь
10:00+12Ю, 5 м/с94%987 гПаоблачносл. дождь
11:00+12Ю, 5 м/с95%987 гПаоблачносл. дождь
12:00+12Ю, 4 м/с97%987 гПаоблачносл. дождь
13:00+12ЮЗ, 5 м/с96%987 гПаоблачносл. дождь
14:00+11ЮЗ, 4 м/с96%988 гПаоблачносл. дождь
15:00+11ЮЗ, 5 м/с96%988 гПаоблачносл. дождь
16:00+11Ю, 5 м/с96%988 гПаоблачнодождь
17:00+11Ю, 4 м/с98%988 гПаоблачнодождь
18:00+12ЮЗ, 5 м/с98%989 гПаоблачнодождь
19:00+11З, 6 м/с95%989 гПаоблачнодождь
20:00+11З, 5 м/с95%989 гПаоблачнодождь
21:00+11З, 4 м/с96%989 гПаоблачно